timestamp,waterbody_station,lease,latitude,longitude,deployment_start_date,deployment_end_date,sensor,depth,mooring,Temperature_degrees Celsius,Dissolved Oxygen_percent saturation,Salinity_practical salinity units
2019-05-29T00:00:00,Lobster Bay-Old Point Channel,,43.721,-65.8457,2018-03-20,2019-06-15,HOBO-20291436,5.0,float,9.558,,
2019-05-29T00:15:00,Lobster Bay-Old Point Channel,,43.721,-65.8457,2018-03-20,2019-06-15,HOBO-20291436,5.0,float,9.262,,
2019-05-29T00:30:00,Lobster Bay-Old Point Channel,,43.721,-65.8457,2018-03-20,2019-06-15,HOBO-20291436,5.0,float,10.051,,
2019-05-29T00:45:00,Lobster Bay-Old Point Channel,,43.721,-65.8457,2018-03-20,2019-06-15,HOBO-20291436,5.0,float,10.026,,
2019-05-29T01:00:00,Lobster Bay-Old Point Channel,,43.721,-65.8457,2018-03-20,2019-06-15,HOBO-20291436,5.0,float,9.879,,
2019-05-29T01:15:00,Lobster Bay-Old Point Channel,,43.721,-65.8457,2018-03-20,2019-06-15,HOBO-20291436,5.0,float,9.706,,
2019-05-29T01:30:00,Lobster Bay-Old Point Channel,,43.721,-65.8457,2018-03-20,2019-06-15,HOBO-20291436,5.0,float,9.756,,
2019-05-29T01:45:00,Lobster Bay-Old Point Channel,,43.721,-65.8457,2018-03-20,2019-06-15,HOBO-20291436,5.0,float,9.829,,
2019-05-29T02:00:00,Lobster Bay-Old Point Channel,,43.721,-65.8457,2018-03-20,2019-06-15,HOBO-20291436,5.0,float,9.682,,
2019-05-29T02:15:00,Lobster Bay-Old Point Channel,,43.721,-65.8457,2018-03-20,2019-06-15,HOBO-20291436,5.0,float,9.534,,
2019-05-29T02:30:00,Lobster Bay-Old Point Channel,,43.721,-65.8457,2018-03-20,2019-06-15,HOBO-20291436,5.0,float,9.534,,
2019-05-29T02:45:00,Lobster Bay-Old Point Channel,,43.721,-65.8457,2018-03-20,2019-06-15,HOBO-20291436,5.0,float,9.46,,
2019-05-29T03:00:00,Lobster Bay-Old Point Channel,,43.721,-65.8457,2018-03-20,2019-06-15,HOBO-20291436,5.0,float,9.386,,
2019-05-29T03:15:00,Lobster Bay-Old Point Channel,,43.721,-65.8457,2018-03-20,2019-06-15,HOBO-20291436,5.0,float,9.361,,
2019-05-29T03:30:00,Lobster Bay-Old Point Channel,,43.721,-65.8457,2018-03-20,2019-06-15,HOBO-20291436,5.0,float,9.287,,
2019-05-29T03:45:00,Lobster Bay-Old Point Channel,,43.721,-65.8457,2018-03-20,2019-06-15,HOBO-20291436,5.0,float,9.287,,
2019-05-29T04:00:00,Lobster Bay-Old Point Channel,,43.721,-65.8457,2018-03-20,2019-06-15,HOBO-20291436,5.0,float,9.188,,
2019-05-29T04:15:00,Lobster Bay-Old Point Channel,,43.721,-65.8457,2018-03-20,2019-06-15,HOBO-20291436,5.0,float,9.287,,
2019-05-29T04:30:00,Lobster Bay-Old Point Channel,,43.721,-65.8457,2018-03-20,2019-06-15,HOBO-20291436,5.0,float,9.336,,
2019-05-29T04:45:00,Lobster Bay-Old Point Channel,,43.721,-65.8457,2018-03-20,2019-06-15,HOBO-20291436,5.0,float,9.262,,
2019-05-29T05:00:00,Lobster Bay-Old Point Channel,,43.721,-65.8457,2018-03-20,2019-06-15,HOBO-20291436,5.0,float,9.04,,
2019-05-29T05:15:00,Lobster Bay-Old Point Channel,,43.721,-65.8457,2018-03-20,2019-06-15,HOBO-20291436,5.0,float,9.089,,
2019-05-29T05:30:00,Lobster Bay-Old Point Channel,,43.721,-65.8457,2018-03-20,2019-06-15,HOBO-20291436,5.0,float,9.188,,
2019-05-29T05:45:00,Lobster Bay-Old Point Channel,,43.721,-65.8457,2018-03-20,2019-06-15,HOBO-20291436,5.0,float,9.114,,
2019-05-29T06:00:00,Lobster Bay-Old Point Channel,,43.721,-65.8457,2018-03-20,2019-06-15,HOBO-20291436,5.0,float,9.114,,
2019-05-29T06:15:00,Lobster Bay-Old Point Channel,,43.721,-65.8457,2018-03-20,2019-06-15,HOBO-20291436,5.0,float,9.089,,
2019-05-29T06:30:00,Lobster Bay-Old Point Channel,,43.721,-65.8457,2018-03-20,2019-06-15,HOBO-20291436,5.0,float,9.089,,
2019-05-29T06:45:00,Lobster Bay-Old Point Channel,,43.721,-65.8457,2018-03-20,2019-06-15,HOBO-20291436,5.0,float,9.089,,
2019-05-29T07:00:00,Lobster Bay-Old Point Channel,,43.721,-65.8457,2018-03-20,2019-06-15,HOBO-20291436,5.0,float,9.04,,
2019-05-29T07:15:00,Lobster Bay-Old Point Channel,,43.721,-65.8457,2018-03-20,2019-06-15,HOBO-20291436,5.0,float,9.015,,
2019-05-29T07:30:00,Lobster Bay-Old Point Channel,,43.721,-65.8457,2018-03-20,2019-06-15,HOBO-20291436,5.0,float,9.114,,
2019-05-29T07:45:00,Lobster Bay-Old Point Channel,,43.721,-65.8457,2018-03-20,2019-06-15,HOBO-20291436,5.0,float,8.99,,
2019-05-29T08:00:00,Lobster Bay-Old Point Channel,,43.721,-65.8457,2018-03-20,2019-06-15,HOBO-20291436,5.0,float,8.941,,
2019-05-29T08:15:00,Lobster Bay-Old Point Channel,,43.721,-65.8457,2018-03-20,2019-06-15,HOBO-20291436,5.0,float,9.139,,
2019-05-29T08:30:00,Lobster Bay-Old Point Channel,,43.721,-65.8457,2018-03-20,2019-06-15,HOBO-20291436,5.0,float,9.089,,
2019-05-29T08:45:00,Lobster Bay-Old Point Channel,,43.721,-65.8457,2018-03-20,2019-06-15,HOBO-20291436,5.0,float,9.114,,
2019-05-29T09:00:00,Lobster Bay-Old Point Channel,,43.721,-65.8457,2018-03-20,2019-06-15,HOBO-20291436,5.0,float,8.916,,
2019-05-29T09:15:00,Lobster Bay-Old Point Channel,,43.721,-65.8457,2018-03-20,2019-06-15,HOBO-20291436,5.0,float,8.916,,
2019-05-29T09:30:00,Lobster Bay-Old Point Channel,,43.721,-65.8457,2018-03-20,2019-06-15,HOBO-20291436,5.0,float,8.916,,
2019-05-29T09:45:00,Lobster Bay-Old Point Channel,,43.721,-65.8457,2018-03-20,2019-06-15,HOBO-20291436,5.0,float,8.841,,
2019-05-29T10:00:00,Lobster Bay-Old Point Channel,,43.721,-65.8457,2018-03-20,2019-06-15,HOBO-20291436,5.0,float,8.866,,
2019-05-29T10:15:00,Lobster Bay-Old Point Channel,,43.721,-65.8457,2018-03-20,2019-06-15,HOBO-20291436,5.0,float,8.767,,
2019-05-29T10:30:00,Lobster Bay-Old Point Channel,,43.721,-65.8457,2018-03-20,2019-06-15,HOBO-20291436,5.0,float,8.817,,
2019-05-29T10:45:00,Lobster Bay-Old Point Channel,,43.721,-65.8457,2018-03-20,2019-06-15,HOBO-20291436,5.0,float,8.817,,
2019-05-29T11:00:00,Lobster Bay-Old Point Channel,,43.721,-65.8457,2018-03-20,2019-06-15,HOBO-20291436,5.0,float,8.792,,
2019-05-29T11:15:00,Lobster Bay-Old Point Channel,,43.721,-65.8457,2018-03-20,2019-06-15,HOBO-20291436,5.0,float,8.99,,
2019-05-29T11:30:00,Lobster Bay-Old Point Channel,,43.721,-65.8457,2018-03-20,2019-06-15,HOBO-20291436,5.0,float,9.015,,
2019-05-29T11:45:00,Lobster Bay-Old Point Channel,,43.721,-65.8457,2018-03-20,2019-06-15,HOBO-20291436,5.0,float,8.99,,
2019-05-29T12:00:00,Lobster Bay-Old Point Channel,,43.721,-65.8457,2018-03-20,2019-06-15,HOBO-20291436,5.0,float,8.916,,
2019-05-29T12:15:00,Lobster Bay-Old Point Channel,,43.721,-65.8457,2018-03-20,2019-06-15,HOBO-20291436,5.0,float,9.064,,
2019-05-29T12:30:00,Lobster Bay-Old Point Channel,,43.721,-65.8457,2018-03-20,2019-06-15,HOBO-20291436,5.0,float,9.163,,
2019-05-29T12:45:00,Lobster Bay-Old Point Channel,,43.721,-65.8457,2018-03-20,2019-06-15,HOBO-20291436,5.0,float,9.213,,
2019-05-29T13:00:00,Lobster Bay-Old Point Channel,,43.721,-65.8457,2018-03-20,2019-06-15,HOBO-20291436,5.0,float,9.361,,
2019-05-29T13:15:00,Lobster Bay-Old Point Channel,,43.721,-65.8457,2018-03-20,2019-06-15,HOBO-20291436,5.0,float,9.386,,
2019-05-29T13:30:00,Lobster Bay-Old Point Channel,,43.721,-65.8457,2018-03-20,2019-06-15,HOBO-20291436,5.0,float,9.41,,
2019-05-29T13:45:00,Lobster Bay-Old Point Channel,,43.721,-65.8457,2018-03-20,2019-06-15,HOBO-20291436,5.0,float,9.361,,
2019-05-29T14:00:00,Lobster Bay-Old Point Channel,,43.721,-65.8457,2018-03-20,2019-06-15,HOBO-20291436,5.0,float,9.41,,
2019-05-29T14:15:00,Lobster Bay-Old Point Channel,,43.721,-65.8457,2018-03-20,2019-06-15,HOBO-20291436,5.0,float,9.386,,
2019-05-29T14:30:00,Lobster Bay-Old Point Channel,,43.721,-65.8457,2018-03-20,2019-06-15,HOBO-20291436,5.0,float,9.386,,
2019-05-29T14:45:00,Lobster Bay-Old Point Channel,,43.721,-65.8457,2018-03-20,2019-06-15,HOBO-20291436,5.0,float,9.386,,
2019-05-29T15:00:00,Lobster Bay-Old Point Channel,,43.721,-65.8457,2018-03-20,2019-06-15,HOBO-20291436,5.0,float,9.361,,
2019-05-29T15:15:00,Lobster Bay-Old Point Channel,,43.721,-65.8457,2018-03-20,2019-06-15,HOBO-20291436,5.0,float,9.361,,
2019-05-29T15:30:00,Lobster Bay-Old Point Channel,,43.721,-65.8457,2018-03-20,2019-06-15,HOBO-20291436,5.0,float,9.41,,
2019-05-29T15:45:00,Lobster Bay-Old Point Channel,,43.721,-65.8457,2018-03-20,2019-06-15,HOBO-20291436,5.0,float,9.435,,
2019-05-29T16:00:00,Lobster Bay-Old Point Channel,,43.721,-65.8457,2018-03-20,2019-06-15,HOBO-20291436,5.0,float,9.361,,
2019-05-29T16:15:00,Lobster Bay-Old Point Channel,,43.721,-65.8457,2018-03-20,2019-06-15,HOBO-20291436,5.0,float,9.386,,
2019-05-29T16:30:00,Lobster Bay-Old Point Channel,,43.721,-65.8457,2018-03-20,2019-06-15,HOBO-20291436,5.0,float,9.46,,
2019-05-29T16:45:00,Lobster Bay-Old Point Channel,,43.721,-65.8457,2018-03-20,2019-06-15,HOBO-20291436,5.0,float,9.435,,
2019-05-29T17:00:00,Lobster Bay-Old Point Channel,,43.721,-65.8457,2018-03-20,2019-06-15,HOBO-20291436,5.0,float,9.435,,
2019-05-29T17:15:00,Lobster Bay-Old Point Channel,,43.721,-65.8457,2018-03-20,2019-06-15,HOBO-20291436,5.0,float,9.41,,
2019-05-29T17:30:00,Lobster Bay-Old Point Channel,,43.721,-65.8457,2018-03-20,2019-06-15,HOBO-20291436,5.0,float,9.46,,
2019-05-29T17:45:00,Lobster Bay-Old Point Channel,,43.721,-65.8457,2018-03-20,2019-06-15,HOBO-20291436,5.0,float,9.336,,
2019-05-29T18:00:00,Lobster Bay-Old Point Channel,,43.721,-65.8457,2018-03-20,2019-06-15,HOBO-20291436,5.0,float,9.262,,
2019-05-29T18:15:00,Lobster Bay-Old Point Channel,,43.721,-65.8457,2018-03-20,2019-06-15,HOBO-20291436,5.0,float,9.336,,
2019-05-29T18:30:00,Lobster Bay-Old Point Channel,,43.721,-65.8457,2018-03-20,2019-06-15,HOBO-20291436,5.0,float,9.386,,
2019-05-29T18:45:00,Lobster Bay-Old Point Channel,,43.721,-65.8457,2018-03-20,2019-06-15,HOBO-20291436,5.0,float,9.435,,
2019-05-29T19:00:00,Lobster Bay-Old Point Channel,,43.721,-65.8457,2018-03-20,2019-06-15,HOBO-20291436,5.0,float,9.386,,
2019-05-29T19:15:00,Lobster Bay-Old Point Channel,,43.721,-65.8457,2018-03-20,2019-06-15,HOBO-20291436,5.0,float,9.312,,
2019-05-29T19:30:00,Lobster Bay-Old Point Channel,,43.721,-65.8457,2018-03-20,2019-06-15,HOBO-20291436,5.0,float,9.287,,
2019-05-29T19:45:00,Lobster Bay-Old Point Channel,,43.721,-65.8457,2018-03-20,2019-06-15,HOBO-20291436,5.0,float,9.188,,
2019-05-29T20:00:00,Lobster Bay-Old Point Channel,,43.721,-65.8457,2018-03-20,2019-06-15,HOBO-20291436,5.0,float,9.163,,
2019-05-29T20:15:00,Lobster Bay-Old Point Channel,,43.721,-65.8457,2018-03-20,2019-06-15,HOBO-20291436,5.0,float,9.188,,
2019-05-29T20:30:00,Lobster Bay-Old Point Channel,,43.721,-65.8457,2018-03-20,2019-06-15,HOBO-20291436,5.0,float,9.188,,
2019-05-29T20:45:00,Lobster Bay-Old Point Channel,,43.721,-65.8457,2018-03-20,2019-06-15,HOBO-20291436,5.0,float,9.114,,
2019-05-29T21:00:00,Lobster Bay-Old Point Channel,,43.721,-65.8457,2018-03-20,2019-06-15,HOBO-20291436,5.0,float,9.139,,
2019-05-29T21:15:00,Lobster Bay-Old Point Channel,,43.721,-65.8457,2018-03-20,2019-06-15,HOBO-20291436,5.0,float,9.089,,
2019-05-29T21:30:00,Lobster Bay-Old Point Channel,,43.721,-65.8457,2018-03-20,2019-06-15,HOBO-20291436,5.0,float,9.114,,
2019-05-29T21:45:00,Lobster Bay-Old Point Channel,,43.721,-65.8457,2018-03-20,2019-06-15,HOBO-20291436,5.0,float,9.089,,
2019-05-29T22:00:00,Lobster Bay-Old Point Channel,,43.721,-65.8457,2018-03-20,2019-06-15,HOBO-20291436,5.0,float,9.04,,
2019-05-29T22:15:00,Lobster Bay-Old Point Channel,,43.721,-65.8457,2018-03-20,2019-06-15,HOBO-20291436,5.0,float,9.04,,
2019-05-29T22:30:00,Lobster Bay-Old Point Channel,,43.721,-65.8457,2018-03-20,2019-06-15,HOBO-20291436,5.0,float,9.015,,
2019-05-29T22:45:00,Lobster Bay-Old Point Channel,,43.721,-65.8457,2018-03-20,2019-06-15,HOBO-20291436,5.0,float,9.015,,
2019-05-29T23:00:00,Lobster Bay-Old Point Channel,,43.721,-65.8457,2018-03-20,2019-06-15,HOBO-20291436,5.0,float,9.015,,
2019-05-29T23:15:00,Lobster Bay-Old Point Channel,,43.721,-65.8457,2018-03-20,2019-06-15,HOBO-20291436,5.0,float,9.139,,
2019-05-29T23:30:00,Lobster Bay-Old Point Channel,,43.721,-65.8457,2018-03-20,2019-06-15,HOBO-20291436,5.0,float,9.188,,
2019-05-29T23:45:00,Lobster Bay-Old Point Channel,,43.721,-65.8457,2018-03-20,2019-06-15,HOBO-20291436,5.0,float,9.213,,
